Location: San Antonio
(29.4240°N, 98.4930°W)
Time: 08:42:42
(UTC-05:00)

Transit 4A - Visible Passes

Search period start: 14 July 2024 00:00
Search period end: 24 July 2024 00:00
Orbit: 870 x 973 km, 66.8° (Epoch: 13 July)

Date Brightness Start Highest point End Pass type
(mag) Time Alt. Az. Time Alt. Az. Time Alt. Az.
14 Jul 9.5 03:27:32 10° N 03:32:52 31° ENE 03:38:17 10° ESE visible
14 Jul 8.5 05:13:44 10° NW 05:19:04 32° WSW 05:22:34 19° SSW visible
15 Jul 8.7 03:36:07 10° NNW 03:41:59 48° ENE 03:44:45 29° ESE visible
15 Jul 9.1 05:23:34 10° WNW 05:27:54 20° WSW 05:28:03 20° WSW visible
16 Jul 7.9 03:44:57 10° NNW 03:51:03 75° ENE 03:51:25 72° E visible
16 Jul 9.8 05:34:30 10° W 05:34:46 10° W 05:34:46 10° W visible
17 Jul 10.2 02:09:45 10° NNE 02:13:14 15° NE 02:15:15 13° ENE visible
17 Jul 8.2 03:53:57 10° NNW 03:58:38 53° NW 03:58:38 53° NW visible
18 Jul 9.7 02:17:45 10° N 02:22:31 24° ENE 02:22:47 23° ENE visible
18 Jul 9.1 04:03:11 10° NW 04:06:11 28° NW 04:06:11 28° NW visible
19 Jul 9.3 02:26:10 10° N 02:30:33 33° NE 02:30:33 33° NE visible
19 Jul 9.8 04:12:43 10° NW 04:13:58 15° WNW 04:13:58 15° WNW visible
20 Jul 9.2 02:34:50 10° NNW 02:38:29 35° N 02:38:29 35° N visible
21 Jul 10.4 01:01:00 10° NNE 01:02:47 11° NE 01:03:07 11° NE visible
21 Jul 9.4 02:43:43 10° NNW 02:46:33 29° NNW 02:46:33 29° NNW visible
22 Jul 10.1 01:08:09 10° NNE 01:11:16 17° NE 01:11:16 17° NE visible
22 Jul 9.8 02:52:46 10° NNW 02:54:43 21° NW 02:54:43 21° NW visible
23 Jul 9.8 01:16:18 10° N 01:19:30 23° NNE 01:19:30 23° NNE visible
23 Jul 10.1 03:02:06 10° NW 03:02:57 14° NW 03:02:57 14° NW visible
